Location: ????????
(55.0808°N, 38.5463°E)
Time: 01:40:33
(UTC+00:00)

Nimbus 3 Rocket - Pass Details

Date: 21 September 2024
Orbit: 1072 x 1131 km, 99.9° (Epoch: 03 October)

Event Time Altitude Azimuth Distance (km) Brightness Sun altitude
Rises 21:20:09 0° 18° (NNE) 3,916 9.1 -34.7°
Reaches altitude 10° 21:22:46 10° 22° (NNE) 2,948 8.2 -34.7°
Enters shadow 21:28:05 53° 58° (ENE) 1,318 5.7 -34.6°
